Temp
86 85 88 87 89 70 81 82 73 78 89 84 74 75 78 77 70 66 78 75 79 77 81 80 80 78 86 84 84 86 84 87 83 82 82 82 82 81 80 80 86 88 91 92 93 93 94 94 95 94 92 94 93 92 92 90 90 91 91 89 90 90 90
85 90 90 89 90 88 85 74 81 89 92 88 77 66 70 68 63 66 75 71 74 73 59 77 80 80 76 85 86 83 81 79 85 83 81 83 82 82 81 80 80 85 87 89 92 95 94 93 95 94 92 95 94 94 93 92 91 89 92 91 92 92 90
85 89 89 85 89 92 83 82 95 78 69 67 74 71 60 61 62 64 69 74 76 75 69 76 74 80 75 76 82 85 86 77 81 83 82 81 82 82 81 81 81 83 86 88 90 92 93 92 92 94 95 95 96 95 95 96 93 95 95 96 94 92 92
85 85 82 70 78 87 90 90 86 90 82 75 69 71 72 72 63 66 66 71 68 80 71 78 74 75 76 83 85 82 84 84 76 81 82 82 80 80 80 81 82 84 86 88 90 91 91 91 92 94 93 95 96 94 95 94 93 93 95 96 94 93 94
83 71 78 76 79 76 78 78 77 82 80 88 83 80 73 69 65 65 66 63 68 68 77 81 80 81 82 81 83 73 77 79 83 81 82 80 80 81 82 82 82 83 85 89 90 90 91 92 93 93 93 91 91 90 91 92 91 92 93 95 96 93 94
75 77 84 84 84 84 81 79 76 81 77 72 66 65 81 77 70 62 65 63 66 74 78 79 79 82 81 83 80 83 72 76 78 82 82 80 79 80 82 83 84 85 84 86 87 87 89 90 91 91 90 84 84 87 87 88 91 91 92 93 93 92 93
74 76 84 90 91 85 86 85 80 84 83 81 72 59 69 77 77 79 75 69 62 78 81 80 81 82 84 84 85 84 80 71 78 82 82 83 79 81 80 81 83 84 84 84 85 85 86 86 87 88 89 89 90 90 90 91 90 90 93 94 93 93 93
78 81 85 85 87 86 83 86 86 83 78 81 78 76 78 74 75 70 72 67 65 78 79 80 79 81 81 83 83 82 82 77 76 81 82 80 80 79 80 80 83 82 83 85 84 84 83 84 84 86 86 87 88 88 88 89 89 90 92 92 91 90 91
67 72 77 79 85 84 80 81 85 87 86 85 85 83 81 71 76 77 71 62 64 73 80 81 81 79 81 81 84 84 80 81 78 78 80 80 78 77 75 79 80 80 81 80 80 80 80 81 82 82 83 85 86 87 88 88 88 89 89 91 90 90 91
50 51 53 59 66 74 80 82 84 84 82 79 75 71 74 62 69 73 70 71 64 72 76 78 79 79 79 81 84 85 83 80 81 79 79 79 80 77 75 76 76 77 79 79 78 76 78 79 80 79 80 83 84 85 86 88 87 88 88 89 89 91 89
58 60 60 70 74 76 74 77 77 76 80 82 80 76 70 65 72 70 71 71 67 69 72 73 75 76 76 76 78 82 80 80 79 77 79 79 76 76 73 72 72 74 77 78 77 75 77 78 78 76 76 79 81 82 84 86 87 87 87 87 88 88 88
68 72 68 75 76 71 72 71 73 76 76 78 75 70 67 71 67 64 73 72 71 72 74 73 72 75 76 77 78 79 79 79 79 77 76 78 79 77 74 73 73 73 76 78 78 77 78 77 78 75 74 74 76 79 82 84 86 86 86 86 86 86 86
73 75 74 76 76 75 73 73 72 73 76 76 72 72 75 75 68 66 69 70 71 76 77 77 77 77 76 79 81 80 80 78 77 77 78 77 77 76 77 75 72 71 75 78 78 79 80 79 77 77 75 74 74 75 77 79 81 84 85 85 84 84 85
72 74 75 76 74 75 74 74 74 74 75 75 75 75 77 76 70 71 74 71 70 68 73 78 78 79 80 80 80 78 78 77 76 76 76 77 77 75 75 75 76 77 78 77 79 79 80 80 79 79 77 75 75 74 74 76 77 78 81 82 83 83 83
69 73 75 75 73 71 70 74 75 76 75 76 75 74 75 74 73 76 75 71 67 74 75 74 79 79 80 79 79 77 76 77 76 76 74 74 73 72 73 73 75 76 77 79 79 78 78 79 80 80 79 78 77 76 76 76 76 77 77 78 80 81 81
64 71 72 73 74 73 71 71 72 74 73 71 73 71 73 70 69 72 74 71 65 65 75 76 76 76 76 76 77 77 77 78 75 74 73 73 73 72 72 73 74 75 75 75 74 74 76 79 78 78 79 80 80 78 78 77 77 77 77 77 77 79 80
61 71 72 72 71 69 64 67 72 73 73 73 76 77 76 75 74 70 66 66 68 69 75 71 73 75 75 76 77 76 75 76 75 74 74 75 75 74 73 74 74 75 75 75 76 76 76 75 74 76 78 78 78 78 78 78 79 78 77 76 77 77 78
61 67 70 70 64 53 56 69 79 76 68 68 71 70 73 76 77 70 71 70 71 69 69 68 73 73 73 74 75 76 73 74 74 75 75 76 76 75 74 74 73 73 73 73 73 73 73 74 76 76 77 76 77 78 78 78 78 77 76 76 76 77 78
60 67 65 58 51 54 64 75 76 74 77 76 74 73 76 75 75 73 69 69 74 71 75 72 72 73 76 76 73 73 74 74 74 73 73 73 73 73 72 71 71 70 70 71 72 73 74 74 75 76 76 76 76 76 76 75 76 76 76 76 76 77 76
66 62 60 46 49 61 70 73 76 78 78 78 74 72 72 73 73 71 67 69 76 74 75 75 75 74 74 76 75 72 73 75 74 74 73 73 74 72 73 72 72 73 73 72 72 73 76 77 76 77 76 77 76 75 77 76 76 75 75 73 73 73 72
57 59 59 56 65 65 68 69 69 73 67 69 65 59 64 71 72 72 69 70 75 76 75 75 75 75 75 72 69 72 71 74 76 75 74 74 73 73 74 76 76 76 76 75 76 76 77 78 75 76 76 76 75 74 74 73 72 72 72 72 73 73 73
67 60 56 59 58 51 53 64 73 78 77 75 73 70 63 68 73 72 68 64 72 73 74 75 74 74 69 63 63 68 70 72 71 74 75 76 76 76 75 76 78 79 79 80 82 83 80 78 78 77 77 76 76 74 74 74 74 72 71 71 72 72 73
65 61 55 53 48 52 58 61 71 77 80 78 77 68 57 67 74 73 70 70 70 72 66 68 74 68 61 61 62 65 65 66 71 72 74 74 76 77 77 76 74 73 75 78 81 81 80 79 78 80 80 80 79 77 78 79 77 75 72 72 72 73 74
62 61 57 53 55 56 63 68 71 77 80 78 72 56 57 64 74 75 75 73 71 71 72 73 70 63 58 58 59 63 63 64 66 68 71 71 71 73 75 77 76 75 75 74 75 77 79 79 82 81 81 79 78 79 80 79 77 75 74 72 74 76 77
62 58 61 62 58 64 67 69 74 78 78 73 58 50 57 69 71 74 75 76 74 72 70 69 64 62 61 61 62 64 64 63 64 68 70 71 71 70 72 73 74 74 74 73 73 74 73 76 80 80 80 77 75 75 76 75 74 75 75 75 74 74 75
63 64 58 58 56 64 69 73 76 76 69 57 54 64 71 70 71 75 77 75 75 75 72 68 62 64 67 68 67 67 67 64 63 64 66 70 73 74 71 70 71 73 74 74 75 75 74 75 77 77 76 73 73 73 73 73 75 77 77 76 76 75 75
66 64 58 49 44 61 73 70 72 72 59 56 67 70 73 75 72 73 70 73 76 75 71 66 65 67 69 69 69 69 68 67 65 65 65 64 64 67 71 72 74 73 71 71 71 72 75 75 75 75 75 71 71 71 71 71 75 75 76 76 75 74 74
58 57 52 49 62 67 72 72 62 66 68 72 72 71 70 74 72 70 72 65 72 75 63 63 66 65 67 67 67 67 68 69 69 68 66 64 62 63 65 66 70 74 72 72 72 74 73 72 72 73 71 69 70 70 69 72 74 75 75 75 75 74 74
63 59 63 67 70 72 74 72 71 72 74 76 75 74 73 70 72 72 65 67 74 68 66 67 68 69 71 70 71 69 68 69 70 69 67 67 66 63 61 61 64 65 67 69 73 72 73 72 72 71 71 69 69 69 72 74 73 73 74 75 75 75 75
71 73 72 73 73 73 73 75 74 74 74 78 77 75 73 73 74 75 73 69 67 68 69 67 69 69 68 70 69 70 72 72 71 70 70 69 68 68 67 64 63 63 63 64 68 70 71 73 72 71 71 71 68 69 73 74 75 74 74 73 73 73 74
63 55 70 70 69 72 73 73 74 75 76 75 76 74 74 74 75 76 76 74 74 68 68 67 64 64 65 63 65 70 70 70 71 72 71 70 69 68 67 67 67 66 64 61 61 64 65 69 71 72 72 72 72 72 72 73 74 73 74 74 73 73 74
63 59 68 71 73 72 74 75 73 72 73 74 75 76 75 75 75 76 75 76 74 72 68 69 68 68 69 67 65 65 66 68 70 70 70 70 70 70 70 69 69 68 67 64 63 62 61 64 67 70 71 71 72 71 73 72 71 71 71 72 74 73 75
70 69 70 71 72 71 71 71 73 73 73 73 73 75 76 76 75 75 76 76 74 74 70 69 69 68 69 70 69 68 67 68 69 69 69 70 70 70 70 70 69 68 67 66 64 62 61 63 63 64 67 70 72 71 71 71 71 71 70 71 72 73 74
62 58 59 68 62 61 65 69 70 72 73 73 73 73 74 74 73 73 73 75 76 75 73 73 72 70 69 70 70 68 67 67 68 68 68 69 69 70 71 71 71 69 68 68 66 65 64 64 63 62 63 65 67 70 71 71 71 70 70 72 73 74 74
60 63 63 68 68 68 67 69 72 73 74 73 70 70 71 73 74 74 72 71 73 73 73 74 73 71 68 68 70 69 68 67 68 66 64 64 66 67 69 69 69 68 68 68 67 66 66 66 65 64 64 65 65 66 68 69 70 69 70 71 72 74 73
69 70 69 70 69 67 68 71 72 72 73 73 71 71 72 72 73 74 73 72 71 71 72 73 73 73 72 72 72 69 69 69 67 66 65 64 63 61 62 65 67 67 66 67 67 66 66 66 66 65 66 66 65 68 67 67 67 68 69 70 70 71 72
67 70 71 71 71 71 73 73 73 73 72 73 71 71 71 72 72 73 72 72 73 73 71 71 73 74 73 72 73 71 70 69 68 67 65 65 65 61 61 62 63 64 64 65 65 65 65 65 65 66 66 66 68 69 67 67 66 65 65 66 68 69 70
MSLP
1008.76 1009.36 1008.64 1008.96 1008.36 1013.92 1009.72 1010.36 1012.92 1011.36 1008.44 1009.64 1011.72 1011.36 1010.80 1010.80 1013.12 1013.64 1010.16 1011.52 1010.36 1011.64 1010.64 1011.00 1010.52 1011.48 1009.44 1010.00 1010.16 1009.96 1010.60 1010.00 1010.68 1011.40 1011.52 1011.80 1012.20 1012.80 1013.04 1013.00 1012.24 1011.88 1011.88 1012.04 1012.12 1012.52 1012.64 1012.92 1013.20 1013.40 1013.68 1013.76 1014.16 1014.52 1014.96 1015.44 1015.68 1015.84 1016.12 1016.48 1016.60 1016.68 1016.92
1009.20 1007.72 1008.12 1008.32 1008.20 1008.08 1009.08 1012.36 1010.28 1008.24 1007.48 1008.28 1011.32 1014.72 1012.28 1013.68 1015.44 1013.52 1011.24 1012.72 1011.56 1011.84 1017.00 1011.16 1010.64 1010.96 1012.56 1009.80 1009.12 1010.20 1010.84 1011.76 1010.76 1011.16 1011.60 1011.36 1012.00 1012.36 1012.68 1012.92 1012.72 1012.20 1012.00 1012.16 1012.08 1012.12 1012.36 1012.84 1013.04 1013.28 1013.60 1013.48 1013.76 1014.12 1014.56 1015.16 1015.48 1015.88 1015.88 1016.16 1016.32 1016.44 1016.80
1009.08 1007.92 1008.28 1009.36 1008.28 1007.20 1009.68 1009.44 1005.60 1010.92 1014.04 1015.40 1012.16 1013.24 1016.72 1015.92 1015.48 1014.72 1013.08 1011.56 1010.48 1010.88 1013.40 1011.64 1012.68 1010.88 1012.28 1011.76 1010.16 1009.36 1009.44 1011.80 1011.68 1011.20 1011.32 1011.76 1011.76 1012.24 1012.72 1012.96 1013.12 1012.72 1012.32 1012.20 1012.28 1012.24 1012.32 1012.64 1012.80 1012.96 1013.20 1013.32 1013.56 1013.96 1014.12 1014.36 1014.96 1015.16 1015.32 1015.44 1015.76 1016.04 1016.32
1008.52 1009.44 1010.32 1013.44 1011.12 1008.60 1007.56 1007.52 1008.64 1007.48 1009.80 1011.60 1013.80 1013.16 1012.44 1011.96 1014.24 1013.92 1013.48 1012.08 1013.00 1009.08 1012.52 1010.52 1012.28 1012.00 1011.52 1009.64 1009.08 1010.24 1009.96 1010.24 1012.04 1011.52 1011.24 1011.40 1011.84 1011.96 1012.24 1012.64 1012.68 1012.52 1012.24 1012.08 1012.08 1012.28 1012.56 1012.72 1012.84 1012.92 1013.16 1013.28 1013.52 1013.72 1014.08 1014.32 1014.36 1014.60 1014.84 1015.08 1015.44 1015.96 1015.96
1009.28 1012.80 1010.92 1011.44 1010.44 1011.72 1011.36 1011.52 1011.36 1009.88 1010.32 1007.16 1009.20 1010.04 1012.16 1013.04 1013.76 1013.60 1013.20 1014.36 1012.88 1013.20 1010.16 1009.12 1009.96 1009.72 1009.76 1009.96 1009.36 1012.12 1011.60 1011.16 1010.44 1011.24 1011.20 1011.56 1011.96 1011.84 1011.96 1012.12 1012.28 1012.24 1012.08 1011.76 1011.92 1012.08 1012.24 1012.40 1012.56 1012.80 1013.16 1013.80 1013.76 1014.20 1014.40 1014.28 1014.72 1014.88 1015.04 1014.96 1015.20 1015.60 1015.64
1011.68 1010.60 1009.00 1008.88 1008.60 1008.64 1009.80 1010.76 1011.56 1009.56 1011.20 1012.92 1014.60 1014.36 1009.64 1010.72 1012.36 1013.40 1014.04 1013.96 1014.16 1012.36 1010.76 1010.08 1010.20 1009.68 1009.72 1009.00 1010.12 1009.76 1012.60 1011.96 1011.24 1010.80 1010.88 1011.56 1012.20 1012.20 1012.04 1012.04 1012.00 1012.00 1012.20 1011.92 1012.04 1012.16 1012.20 1012.52 1012.80 1013.12 1013.48 1014.44 1014.64 1014.60 1014.96 1014.96 1014.52 1014.96 1015.08 1015.04 1015.16 1015.32 1015.52
1011.24 1011.00 1008.24 1006.72 1006.32 1008.08 1007.84 1008.52 1010.08 1009.00 1008.92 1009.52 1012.44 1015.72 1012.48 1010.60 1010.16 1009.84 1010.00 1012.12 1015.36 1010.68 1010.20 1010.28 1009.64 1009.72 1009.16 1009.04 1009.00 1009.44 1010.52 1013.16 1011.44 1010.52 1010.80 1011.04 1011.68 1011.72 1012.04 1012.24 1012.00 1012.12 1012.12 1012.32 1012.44 1012.68 1012.88 1013.12 1013.16 1013.24 1013.48 1013.68 1013.80 1014.08 1014.16 1014.36 1014.72 1014.92 1014.84 1015.00 1015.00 1015.20 1015.48
1010.72 1009.76 1008.80 1008.32 1007.84 1008.28 1009.08 1007.92 1007.80 1008.96 1010.48 1009.64 1010.32 1010.52 1009.80 1010.80 1010.40 1012.04 1011.20 1012.60 1014.32 1010.92 1010.28 1009.96 1010.36 1009.96 1009.84 1009.32 1009.40 1009.88 1010.32 1011.52 1012.00 1010.96 1010.64 1011.40 1011.80 1012.28 1012.16 1012.24 1012.08 1012.32 1012.40 1012.44 1012.72 1013.04 1013.40 1013.44 1013.52 1013.60 1013.84 1013.92 1013.96 1014.20 1014.40 1014.52 1014.88 1014.96 1014.88 1014.92 1015.32 1015.52 1015.60
1014.12 1012.72 1011.12 1010.76 1008.92 1009.24 1009.28 1008.80 1007.76 1006.96 1007.56 1007.76 1007.76 1008.28 1008.56 1011.92 1009.92 1009.56 1011.76 1014.24 1014.68 1012.08 1010.32 1010.28 1010.32 1010.68 1010.40 1010.28 1009.80 1009.92 1010.96 1010.92 1011.80 1011.88 1011.28 1011.32 1012.00 1012.60 1013.32 1012.60 1012.68 1012.80 1013.04 1013.32 1013.36 1013.52 1013.80 1013.88 1013.84 1013.96 1014.16 1014.32 1014.40 1014.56 1014.56 1014.80 1014.96 1014.92 1015.00 1014.92 1015.16 1015.44 1015.56
1019.08 1018.12 1017.52 1015.84 1013.80 1011.56 1009.96 1008.76 1008.20 1008.16 1009.16 1010.12 1011.08 1011.96 1010.96 1014.36 1012.24 1010.76 1011.80 1011.56 1014.84 1012.84 1011.68 1011.20 1010.84 1011.04 1011.08 1010.24 1009.92 1009.92 1010.40 1011.04 1011.16 1011.52 1011.68 1011.80 1011.72 1012.36 1013.00 1013.04 1013.20 1013.36 1013.32 1013.36 1013.80 1014.16 1014.36 1014.32 1014.32 1014.40 1014.44 1014.56 1014.68 1014.80 1014.80 1014.68 1014.96 1015.04 1015.12 1015.08 1015.24 1015.44 1015.60
1016.96 1015.92 1016.32 1013.96 1012.32 1011.52 1011.48 1010.28 1010.84 1011.52 1010.48 1009.72 1010.08 1010.52 1012.64 1013.92 1011.68 1012.08 1011.60 1012.08 1014.04 1013.60 1012.92 1012.72 1012.36 1011.88 1012.08 1011.92 1011.24 1010.72 1011.08 1011.24 1011.52 1011.88 1011.48 1011.64 1012.60 1012.72 1013.60 1013.96 1014.36 1014.08 1013.52 1013.60 1014.04 1014.48 1014.56 1014.76 1014.88 1014.84 1014.80 1014.88 1015.00 1015.08 1015.04 1014.88 1014.84 1015.00 1015.12 1015.24 1015.36 1015.56 1015.72
1014.80 1013.64 1014.60 1012.80 1012.16 1013.32 1012.88 1013.24 1012.96 1011.80 1011.68 1011.16 1011.88 1013.32 1013.80 1011.92 1013.64 1014.44 1011.40 1011.68 1012.36 1012.52 1012.28 1012.88 1013.04 1012.20 1011.96 1011.84 1011.52 1011.60 1011.48 1011.60 1011.80 1012.20 1012.36 1011.80 1011.96 1012.44 1013.20 1013.68 1013.96 1014.40 1013.72 1013.48 1013.72 1014.32 1014.48 1014.84 1014.92 1015.12 1015.12 1015.16 1015.40 1015.44 1015.52 1015.28 1015.00 1015.08 1015.24 1015.40 1015.56 1015.68 1015.80
1013.32 1012.64 1012.96 1012.60 1012.52 1012.32 1013.08 1013.12 1013.00 1012.88 1011.96 1011.80 1013.04 1013.00 1012.00 1011.76 1013.64 1013.68 1013.08 1012.84 1012.52 1011.28 1011.44 1011.56 1011.60 1011.76 1012.40 1011.84 1011.28 1011.36 1011.60 1012.08 1012.32 1012.32 1012.40 1012.68 1012.64 1012.68 1012.84 1013.24 1013.96 1014.64 1014.00 1013.48 1013.72 1013.84 1014.04 1014.48 1014.96 1015.08 1015.28 1015.44 1015.56 1015.68 1015.64 1015.68 1015.60 1015.40 1015.32 1015.56 1015.76 1015.84 1015.88
1013.56 1012.72 1012.60 1012.20 1012.72 1012.36 1012.72 1012.60 1012.68 1012.68 1012.60 1012.32 1012.32 1012.20 1011.84 1012.04 1013.04 1013.00 1011.88 1012.96 1013.64 1014.56 1012.96 1011.64 1011.68 1011.36 1011.56 1011.60 1011.36 1011.76 1012.00 1012.56 1012.72 1012.80 1012.84 1012.88 1013.04 1013.24 1013.36 1013.28 1013.44 1013.44 1013.28 1013.64 1013.40 1013.56 1013.76 1014.16 1014.48 1014.72 1015.08 1015.32 1015.48 1015.68 1015.80 1015.76 1015.80 1015.68 1015.64 1015.80 1015.92 1016.12 1016.20
1014.24 1013.00 1012.68 1012.68 1013.20 1013.72 1014.00 1012.64 1012.32 1012.40 1012.60 1012.40 1012.04 1012.68 1012.28 1012.40 1013.04 1011.92 1012.16 1013.04 1014.20 1013.16 1012.44 1012.80 1011.68 1011.56 1011.76 1011.96 1011.96 1012.60 1012.52 1012.56 1013.00 1013.12 1013.40 1013.60 1013.80 1014.00 1013.92 1013.80 1013.68 1013.60 1013.36 1013.20 1013.36 1013.80 1013.92 1014.04 1014.12 1014.44 1014.80 1015.00 1015.24 1015.44 1015.48 1015.52 1015.64 1015.60 1015.80 1016.08 1016.12 1016.16 1016.32
1015.16 1013.48 1013.28 1013.04 1012.80 1013.24 1013.76 1013.52 1013.16 1012.80 1013.24 1013.92 1012.96 1013.40 1013.08 1014.28 1013.84 1013.04 1012.48 1012.88 1015.04 1015.60 1012.96 1012.52 1012.56 1012.68 1012.64 1012.72 1012.68 1012.64 1012.56 1012.64 1013.32 1013.84 1014.12 1014.16 1014.08 1014.24 1014.48 1014.36 1014.16 1014.20 1014.20 1014.32 1014.48 1014.64 1014.44 1014.28 1014.44 1014.60 1014.64 1014.68 1014.84 1015.16 1015.16 1015.32 1015.36 1015.40 1015.68 1015.96 1016.20 1016.24 1016.16
1015.92 1013.32 1013.24 1013.52 1013.64 1014.28 1015.36 1014.56 1013.12 1012.64 1012.96 1013.40 1012.36 1012.08 1012.28 1012.68 1012.88 1013.80 1015.00 1014.96 1014.88 1014.32 1012.96 1013.84 1013.56 1013.24 1013.08 1012.96 1012.80 1013.04 1013.12 1013.12 1013.48 1014.00 1014.08 1014.00 1014.08 1014.36 1014.36 1014.40 1014.48 1014.48 1014.52 1014.56 1014.52 1014.60 1014.80 1015.08 1015.24 1014.96 1014.84 1015.00 1014.96 1014.88 1015.04 1015.04 1015.12 1015.44 1015.72 1015.96 1016.16 1016.24 1016.24
1016.12 1014.88 1014.12 1014.16 1015.84 1018.44 1017.08 1013.92 1010.96 1011.68 1014.48 1014.68 1013.60 1013.88 1013.52 1012.44 1012.20 1014.44 1014.20 1014.24 1014.04 1014.76 1014.92 1015.36 1013.72 1013.48 1013.72 1013.56 1013.56 1013.28 1013.76 1013.80 1014.00 1013.96 1014.00 1014.08 1014.24 1014.40 1014.64 1014.84 1015.04 1015.20 1015.32 1015.40 1015.40 1015.36 1015.36 1015.28 1015.12 1015.12 1015.04 1015.20 1015.28 1015.16 1015.16 1015.16 1015.36 1015.60 1015.92 1016.04 1016.12 1016.24 1016.24
1016.60 1014.68 1015.20 1016.96 1019.08 1017.76 1015.52 1012.88 1012.84 1013.40 1012.24 1012.44 1013.00 1013.36 1012.92 1012.96 1013.08 1013.80 1014.72 1014.76 1013.48 1014.00 1012.84 1013.76 1013.92 1013.96 1013.64 1013.56 1014.16 1014.24 1013.96 1013.88 1014.24 1014.60 1014.80 1014.80 1014.84 1015.04 1015.36 1015.60 1015.68 1015.84 1015.88 1015.92 1015.80 1015.72 1015.64 1015.60 1015.48 1015.44 1015.56 1015.56 1015.56 1015.60 1015.76 1015.92 1015.88 1015.92 1015.96 1015.96 1016.16 1016.20 1016.36
1015.00 1015.88 1016.60 1019.96 1019.00 1016.72 1014.40 1013.56 1012.72 1012.52 1012.36 1012.20 1013.36 1013.44 1014.00 1013.72 1013.80 1014.32 1015.64 1014.84 1012.92 1013.12 1013.16 1013.36 1013.40 1013.72 1013.88 1013.80 1014.08 1014.68 1014.68 1014.16 1014.28 1014.56 1015.12 1015.32 1015.24 1015.52 1015.60 1015.76 1015.80 1015.76 1015.84 1016.00 1016.08 1015.84 1015.36 1015.36 1015.56 1015.60 1015.76 1015.64 1015.84 1016.12 1015.92 1016.16 1016.24 1016.28 1016.40 1016.60 1016.68 1016.64 1016.80
1016.88 1016.36 1016.60 1016.84 1015.12 1015.52 1015.16 1014.36 1014.80 1014.24 1015.24 1015.08 1015.72 1017.36 1016.36 1014.52 1014.56 1014.48 1015.24 1014.88 1013.28 1012.96 1013.44 1013.48 1013.36 1013.60 1013.88 1014.92 1015.84 1015.40 1015.40 1014.80 1014.40 1014.60 1015.08 1015.44 1015.76 1015.76 1015.64 1015.36 1015.52 1015.36 1015.32 1015.60 1015.76 1015.64 1015.64 1015.76 1015.92 1016.12 1016.00 1015.92 1016.08 1016.32 1016.60 1016.76 1016.92 1017.00 1017.00 1017.04 1016.92 1016.84 1016.84
1014.60 1016.36 1017.44 1016.52 1016.76 1018.72 1019.52 1016.44 1014.00 1012.92 1013.20 1013.64 1013.76 1014.64 1016.28 1015.60 1014.48 1014.80 1015.48 1016.24 1014.36 1013.92 1013.68 1013.56 1013.84 1014.08 1015.20 1016.44 1017.20 1016.60 1016.16 1015.48 1015.60 1015.20 1015.08 1015.08 1015.32 1015.72 1016.08 1015.84 1015.44 1015.32 1015.28 1015.16 1015.04 1015.04 1015.72 1016.04 1015.88 1015.92 1016.04 1016.00 1016.28 1016.72 1016.88 1016.92 1017.12 1017.36 1017.48 1017.44 1017.24 1017.16 1017.08
1014.76 1015.76 1017.60 1018.16 1018.64 1019.04 1018.68 1017.64 1014.92 1013.36 1012.76 1013.16 1012.88 1015.04 1017.56 1016.20 1014.12 1014.44 1014.96 1014.88 1014.88 1014.44 1015.76 1015.16 1014.04 1015.36 1016.80 1017.32 1017.76 1017.40 1017.44 1016.96 1016.20 1016.00 1015.84 1015.64 1015.60 1015.76 1015.96 1016.32 1016.72 1016.80 1016.52 1016.08 1015.76 1015.72 1015.84 1016.32 1016.20 1015.80 1015.80 1015.60 1015.80 1016.36 1016.56 1016.68 1016.88 1017.24 1017.48 1017.52 1017.52 1017.44 1017.24
1015.32 1015.44 1016.40 1017.88 1018.44 1018.44 1017.08 1015.76 1014.88 1013.44 1012.80 1012.96 1014.36 1017.80 1017.36 1017.00 1014.84 1014.08 1014.00 1014.28 1014.72 1014.88 1014.60 1014.36 1014.88 1016.56 1017.72 1018.08 1018.44 1018.08 1017.92 1017.64 1017.52 1017.20 1016.84 1016.84 1017.08 1017.12 1016.80 1016.64 1016.76 1016.92 1016.88 1016.92 1016.76 1016.60 1016.48 1016.32 1015.84 1015.96 1016.32 1016.52 1016.60 1016.48 1016.48 1016.64 1017.04 1017.48 1017.72 1017.76 1017.40 1017.12 1017.00
1015.24 1016.04 1015.96 1015.84 1018.04 1016.92 1016.28 1015.88 1014.52 1013.44 1013.28 1014.52 1017.68 1018.92 1018.44 1016.00 1015.52 1014.44 1014.04 1013.72 1014.04 1014.60 1015.08 1015.36 1016.56 1017.24 1017.52 1017.84 1017.96 1017.84 1017.64 1017.72 1018.00 1017.84 1017.60 1017.48 1017.48 1017.68 1017.56 1017.48 1017.24 1017.36 1017.48 1017.68 1017.72 1017.52 1017.44 1017.04 1016.64 1016.60 1016.76 1017.12 1017.32 1017.40 1017.36 1017.40 1017.56 1017.60 1017.56 1017.52 1017.32 1017.44 1017.44
1014.88 1014.72 1016.28 1016.84 1018.88 1017.40 1016.16 1015.00 1014.20 1014.04 1015.16 1017.80 1018.60 1017.00 1015.60 1015.64 1015.36 1014.48 1013.68 1014.04 1013.88 1014.12 1014.84 1015.68 1017.08 1016.92 1016.88 1017.20 1017.52 1017.52 1017.64 1017.80 1017.72 1018.04 1018.28 1018.00 1017.76 1017.76 1018.08 1018.04 1017.84 1017.84 1017.96 1018.00 1017.84 1017.92 1017.92 1017.72 1017.44 1017.36 1017.56 1017.92 1017.88 1017.88 1018.00 1018.04 1017.80 1017.48 1017.44 1017.48 1017.52 1017.64 1017.76
1014.24 1014.72 1016.44 1019.40 1019.92 1017.56 1015.08 1015.52 1015.00 1015.20 1017.96 1019.32 1017.00 1016.04 1015.36 1015.00 1015.36 1015.24 1015.64 1014.76 1014.04 1014.24 1015.04 1016.12 1016.68 1016.64 1016.64 1016.84 1017.28 1017.60 1017.72 1017.88 1018.32 1018.44 1018.48 1018.96 1019.12 1018.88 1018.48 1018.20 1018.12 1018.32 1018.68 1018.84 1018.92 1018.76 1018.40 1018.28 1018.12 1017.88 1018.04 1018.48 1018.52 1018.48 1018.60 1018.52 1018.04 1017.96 1017.88 1017.88 1017.92 1018.04 1018.16
1017.28 1017.16 1018.28 1020.04 1017.36 1016.44 1015.32 1015.20 1017.52 1017.08 1016.56 1016.00 1015.84 1016.04 1016.08 1015.32 1015.60 1015.96 1015.32 1016.68 1014.92 1014.52 1016.84 1017.20 1016.64 1017.16 1017.20 1017.24 1017.28 1017.60 1017.84 1018.04 1018.28 1018.68 1019.12 1019.52 1019.68 1019.76 1019.68 1019.44 1019.00 1018.52 1018.88 1019.08 1019.16 1018.92 1018.96 1019.00 1018.88 1018.72 1018.80 1019.04 1018.96 1019.00 1019.08 1018.68 1018.36 1018.20 1018.24 1018.24 1018.20 1018.36 1018.44
1016.48 1017.44 1017.04 1016.36 1015.76 1015.52 1015.36 1015.52 1016.00 1015.92 1015.48 1015.12 1015.24 1015.36 1015.40 1015.96 1015.56 1015.52 1016.96 1016.28 1014.72 1016.16 1016.64 1016.56 1016.84 1016.84 1016.80 1017.00 1016.88 1017.28 1017.80 1018.08 1018.28 1018.76 1019.36 1019.60 1019.88 1020.16 1020.44 1020.08 1019.92 1020.28 1020.32 1020.08 1019.48 1019.36 1019.24 1019.32 1019.28 1019.20 1019.24 1019.48 1019.40 1019.32 1019.00 1018.64 1018.68 1018.68 1018.64 1018.52 1018.52 1018.52 1018.56
1014.96 1014.92 1015.24 1015.08 1015.24 1015.60 1015.48 1015.52 1015.60 1015.68 1015.56 1014.96 1015.00 1015.36 1015.60 1015.60 1015.28 1015.04 1015.56 1016.12 1016.44 1016.12 1016.36 1016.88 1016.60 1017.00 1017.24 1017.12 1017.28 1017.36 1017.40 1017.44 1018.04 1018.48 1018.88 1019.28 1019.64 1019.92 1020.12 1020.36 1020.48 1020.72 1020.96 1021.04 1020.52 1019.96 1019.64 1019.48 1019.64 1019.64 1019.48 1019.64 1019.96 1019.64 1019.08 1018.92 1018.80 1018.88 1018.88 1018.92 1018.88 1018.72 1018.56
1016.44 1018.04 1015.64 1015.76 1016.20 1015.68 1015.60 1015.84 1015.76 1015.56 1015.52 1015.60 1015.40 1015.52 1015.60 1015.68 1015.28 1015.08 1015.20 1015.40 1015.36 1016.44 1016.52 1016.88 1017.40 1017.64 1017.44 1017.88 1018.00 1017.44 1017.80 1018.00 1018.08 1018.28 1018.72 1019.08 1019.36 1019.68 1019.88 1020.16 1020.36 1020.68 1021.04 1021.36 1021.32 1021.00 1020.80 1020.24 1019.96 1019.80 1019.68 1019.64 1019.56 1019.32 1019.28 1019.24 1019.28 1019.24 1019.16 1019.04 1019.04 1018.80 1018.64
1016.56 1017.80 1016.28 1015.84 1015.72 1015.84 1015.64 1015.44 1015.96 1016.12 1016.12 1015.96 1015.64 1015.48 1015.48 1015.48 1015.40 1015.28 1015.40 1015.08 1015.56 1015.96 1017.00 1016.92 1017.12 1017.32 1017.36 1017.64 1017.80 1017.88 1017.96 1018.16 1018.24 1018.48 1018.76 1019.04 1019.28 1019.40 1019.64 1020.00 1020.16 1020.40 1020.64 1020.96 1021.04 1021.12 1021.32 1021.00 1020.64 1020.44 1020.16 1020.04 1020.00 1019.76 1019.48 1019.64 1019.76 1019.60 1019.60 1019.56 1019.24 1019.08 1018.80
1015.16 1015.64 1015.72 1015.76 1015.68 1016.40 1016.52 1016.44 1016.24 1016.20 1016.20 1016.28 1016.24 1015.76 1015.64 1015.60 1015.72 1015.56 1015.28 1015.32 1015.64 1015.80 1016.48 1016.88 1017.00 1017.32 1017.36 1017.44 1017.64 1017.96 1018.16 1018.28 1018.36 1018.48 1018.76 1018.92 1019.08 1019.36 1019.68 1019.80 1020.00 1020.28 1020.48 1020.76 1020.96 1021.20 1021.28 1021.08 1021.24 1021.40 1021.20 1020.76 1020.36 1020.12 1019.96 1019.88 1019.88 1019.88 1019.92 1019.72 1019.52 1019.28 1019.04
1017.08 1018.72 1018.76 1016.48 1017.80 1018.12 1017.68 1017.04 1016.84 1016.56 1016.28 1016.32 1016.44 1016.28 1016.20 1016.20 1016.32 1016.20 1016.12 1015.92 1015.64 1015.76 1016.16 1016.44 1016.72 1017.16 1017.52 1017.44 1017.56 1018.04 1018.28 1018.48 1018.56 1018.80 1018.96 1019.00 1019.24 1019.44 1019.44 1019.64 1019.76 1020.08 1020.32 1020.48 1020.68 1020.88 1021.00 1021.16 1021.48 1021.80 1021.92 1021.56 1021.08 1020.56 1020.28 1020.12 1020.04 1020.04 1019.88 1019.56 1019.36 1019.24 1019.04
1017.84 1017.68 1018.12 1016.76 1016.76 1016.84 1017.20 1016.92 1016.64 1016.48 1016.24 1016.44 1016.96 1017.12 1016.92 1016.56 1016.32 1016.32 1016.48 1016.64 1016.40 1016.40 1016.44 1016.28 1016.48 1016.92 1017.64 1017.76 1017.68 1018.08 1018.40 1018.64 1018.68 1018.88 1019.20 1019.36 1019.32 1019.48 1019.56 1019.72 1020.00 1020.20 1020.44 1020.52 1020.64 1020.96 1021.08 1021.20 1021.40 1021.52 1021.52 1021.40 1021.36 1021.12 1020.88 1020.60 1020.44 1020.48 1020.32 1020.08 1019.60 1019.28 1019.40
1016.12 1016.16 1016.48 1016.52 1016.72 1017.12 1017.08 1016.72 1016.68 1016.60 1016.44 1016.44 1016.96 1016.96 1016.92 1016.92 1016.72 1016.56 1016.68 1016.76 1016.96 1016.84 1016.72 1016.64 1016.60 1016.68 1017.00 1017.32 1017.56 1018.12 1018.40 1018.60 1019.00 1019.32 1019.48 1019.76 1019.88 1020.04 1020.04 1019.88 1019.96 1020.16 1020.40 1020.52 1020.56 1020.76 1020.92 1021.08 1021.24 1021.28 1021.24 1021.16 1021.20 1021.04 1021.08 1021.08 1021.00 1020.96 1020.72 1020.40 1020.08 1019.84 1019.84
1016.72 1016.20 1016.32 1016.36 1016.36 1016.44 1016.24 1016.48 1016.48 1016.60 1016.76 1016.72 1017.12 1017.24 1017.20 1017.08 1016.96 1016.88 1017.04 1017.00 1016.76 1016.80 1017.00 1017.04 1016.80 1016.64 1016.92 1017.32 1017.36 1017.68 1018.16 1018.60 1018.92 1019.16 1019.48 1019.64 1019.80 1020.16 1020.32 1020.36 1020.44 1020.40 1020.40 1020.36 1020.44 1020.56 1020.72 1020.92 1021.08 1021.16 1021.12 1021.08 1020.96 1021.00 1021.12 1021.28 1021.48 1021.60 1021.48 1021.08 1020.68 1020.40 1020.32
Wind_Speed
12 15 13 15 11 9 10 10 14 12 8 12 12 10 12 12 6 10 5 9 7 12 10 10 16 15 5 10 10 16 16 15 18 16 15 16 17 16 11 6 9 12 14 15 14 15 14 14 14 13 12 12 12 12 13 13 13 13 12 12 10 10 9
5 8 13 14 13 14 4 11 10 10 11 11 10 11 8 9 10 7 8 11 10 10 4 8 6 8 10 5 7 10 15 15 15 14 15 15 17 17 14 9 7 8 11 12 13 14 15 14 15 14 13 12 12 12 13 14 14 14 13 13 12 11 10
12 12 10 13 14 16 12 8 6 12 11 13 10 8 11 11 12 7 9 12 10 9 7 10 10 7 6 12 13 9 10 17 11 13 15 14 14 16 15 14 12 11 11 13 13 14 14 14 14 14 13 12 13 13 13 14 15 14 14 13 12 10 11
12 9 8 12 12 14 16 12 9 7 8 10 11 10 9 9 9 9 10 12 8 4 5 12 10 10 11 6 7 12 10 11 14 11 12 13 14 15 17 15 13 14 15 15 16 15 15 15 14 13 13 11 13 13 13 12 12 12 13 13 12 12 12
13 10 10 11 10 12 13 10 10 10 9 4 7 8 13 10 8 9 7 8 2 6 7 5 13 8 8 5 4 12 6 7 9 13 12 11 11 13 15 14 13 10 9 13 13 12 13 12 11 10 11 10 8 7 9 11 11 11 12 11 11 11 10
7 8 12 14 16 14 13 12 12 9 9 10 8 9 8 13 11 6 7 7 7 6 3 5 6 7 6 6 8 9 16 5 3 9 14 14 11 12 12 11 14 13 13 10 10 8 9 11 12 12 9 12 12 14 11 11 10 10 10 10 10 10 10
3 9 4 12 6 3 12 13 12 12 11 8 9 8 9 9 12 14 11 7 3 2 4 6 4 4 5 5 5 5 12 14 9 9 12 14 15 13 14 12 13 11 13 11 11 10 9 9 8 9 10 9 8 9 8 10 11 11 11 10 8 8 8
7 8 6 6 9 9 13 14 14 15 15 11 10 9 7 9 10 12 9 9 5 5 6 5 6 4 5 4 5 6 5 9 7 6 10 14 11 9 10 11 11 9 11 12 12 12 10 9 8 8 7 7 7 7 8 8 9 10 10 9 8 8 8
5 7 6 8 10 11 11 9 11 11 11 16 14 13 12 12 11 11 9 12 4 5 3 6 6 6 6 6 6 6 6 6 8 7 6 10 13 11 9 13 12 13 11 10 10 9 9 7 6 7 7 7 6 7 8 8 8 9 8 8 8 10 9
7 5 6 7 9 11 7 12 9 6 11 10 8 9 5 4 8 14 10 6 6 5 4 6 6 6 6 5 5 8 6 6 6 7 8 8 10 10 10 8 9 12 12 10 9 9 5 5 7 7 6 7 6 7 7 7 7 8 8 7 8 9 9
5 6 5 8 8 6 13 7 5 7 10 13 13 7 7 9 9 10 10 3 7 7 2 2 6 4 6 6 4 6 7 6 7 6 3 7 9 10 12 9 8 7 12 13 12 12 10 6 5 4 6 6 5 5 7 7 6 7 8 8 8 9 9
8 5 4 7 8 6 5 5 8 9 10 12 11 9 11 6 5 9 2 11 4 6 9 7 4 3 5 5 5 7 6 5 6 6 5 4 7 10 10 10 11 11 12 12 14 14 12 9 6 5 4 3 2 3 3 3 6 7 5 6 8 8 8
9 7 8 9 10 6 5 5 3 6 8 11 13 13 16 11 10 8 9 13 6 3 4 7 4 5 4 6 6 6 8 7 6 6 6 6 7 7 7 10 9 7 7 11 13 13 13 12 10 9 7 6 5 5 5 5 4 5 5 6 7 8 8
9 9 9 10 12 9 10 8 4 2 7 6 8 11 11 12 10 14 10 4 9 9 8 5 8 3 5 5 6 8 8 7 6 7 5 5 7 7 8 8 7 8 9 9 9 11 11 12 11 9 8 8 7 8 8 7 7 6 5 6 8 7 8
8 9 10 8 8 8 11 10 9 7 5 7 1 5 7 6 10 9 12 8 3 5 5 7 3 3 5 6 7 8 9 8 7 7 8 9 9 9 10 9 9 7 6 6 7 7 7 9 11 11 10 9 8 8 7 8 7 6 6 7 8 9 9
8 9 12 11 10 8 11 10 10 10 6 10 2 4 4 6 6 11 12 11 4 4 2 4 5 3 6 6 7 7 7 9 8 9 8 8 8 10 10 9 9 8 8 8 9 7 5 7 8 8 8 9 9 9 9 9 8 7 8 9 10 10 10
8 7 7 11 9 9 10 12 12 7 2 8 5 3 3 2 5 5 7 2 4 6 4 7 5 6 6 7 5 6 7 7 8 8 7 7 7 7 8 9 8 8 9 8 7 7 6 6 5 3 3 4 3 4 7 8 7 8 8 9 10 11 10
5 6 8 5 8 10 6 10 4 0 5 5 7 3 6 7 3 2 3 4 3 3 7 8 6 4 5 6 7 7 5 6 7 7 7 7 7 8 9 9 9 8 8 8 8 8 8 8 7 6 6 5 5 5 5 3 4 6 6 8 9 8 7
6 5 4 8 11 6 6 4 6 7 5 4 5 4 6 8 8 10 8 7 5 5 2 7 11 11 9 10 10 7 4 4 5 7 7 8 9 10 10 9 9 10 11 10 9 9 8 7 6 6 6 5 6 6 5 5 4 4 4 5 4 3 3
5 6 6 7 6 4 5 4 4 6 8 5 6 7 6 9 8 7 5 10 3 1 4 8 7 9 7 7 10 10 8 2 5 7 8 8 8 10 9 10 9 10 10 10 10 10 9 9 8 8 7 7 7 6 4 5 5 6 6 6 5 4 5
8 5 7 7 3 3 5 4 5 7 6 5 6 3 3 6 6 6 5 7 5 1 7 4 5 7 7 7 9 10 10 6 6 9 10 10 10 10 10 10 11 10 10 10 10 9 9 9 9 9 8 8 8 8 8 8 8 7 7 7 6 6 6
4 5 5 6 6 6 1 9 3 2 2 3 2 6 4 10 7 7 9 9 7 1 2 4 7 6 5 7 6 7 9 8 10 9 9 11 12 11 11 9 9 10 10 9 9 10 12 10 9 9 8 9 9 9 8 8 9 9 8 8 7 6 5
5 6 6 6 6 1 2 5 9 6 4 4 1 6 4 2 4 2 1 5 6 2 3 5 5 5 5 4 6 8 10 11 9 10 9 10 11 11 11 11 11 10 9 9 9 10 10 11 9 10 8 7 8 8 8 8 8 8 8 9 8 7 6
6 6 4 3 3 4 4 5 6 8 6 5 7 10 4 8 10 4 5 4 2 4 4 3 3 1 3 7 8 10 9 10 12 11 10 10 10 10 11 12 11 10 9 10 10 11 11 9 9 9 9 8 8 7 7 8 8 8 8 8 7 7 6
3 3 5 5 4 4 8 7 8 7 7 6 8 6 6 7 7 8 6 2 1 1 2 2 3 5 7 9 11 10 11 12 12 11 11 12 12 12 12 11 10 10 10 10 10 11 10 10 9 9 8 8 9 8 8 8 9 8 7 6 7 7 6
4 4 2 3 6 3 7 7 5 9 9 7 3 7 5 8 8 8 5 4 1 1 1 4 5 7 11 12 11 12 11 11 13 12 12 12 11 11 11 11 10 9 9 9 9 10 9 9 8 7 8 8 8 8 8 9 8 7 7 7 7 7 7
4 5 4 4 1 5 8 8 4 10 5 3 6 6 5 7 7 7 8 9 2 0 1 8 8 10 8 11 13 12 11 12 12 12 13 11 9 10 9 8 8 9 9 9 10 10 8 8 8 8 9 8 7 7 8 8 7 7 7 7 7 7 6
5 3 4 2 2 4 5 7 5 4 6 4 5 4 4 6 6 8 4 7 5 5 11 5 10 11 10 10 14 13 12 12 13 13 11 10 10 9 11 15 17 11 8 8 8 8 8 8 8 8 8 7 6 7 8 7 7 6 6 5 5 5 4
5 6 5 5 2 2 6 5 6 5 4 4 5 6 6 7 5 5 6 7 6 9 9 8 10 8 9 10 12 14 14 13 13 13 11 11 10 9 8 10 12 13 14 10 8 8 8 8 7 7 6 7 7 7 6 5 5 6 5 5 5 4 4
4 5 6 4 5 4 5 6 4 5 5 6 7 8 7 6 6 5 4 8 6 3 5 8 8 7 6 6 9 11 11 12 13 12 12 11 11 10 9 8 8 6 7 10 12 10 10 9 7 6 6 6 6 5 5 6 6 5 4 4 4 4 4
4 2 4 6 5 4 4 4 5 3 5 6 6 7 7 7 7 6 6 3 4 7 8 11 9 10 11 9 5 6 9 9 10 11 11 11 10 10 9 8 7 5 6 5 4 5 8 8 7 6 5 4 3 4 6 7 7 5 4 2 3 3 3
4 4 4 5 4 4 4 4 3 4 5 6 6 6 5 5 5 5 4 3 5 7 8 8 9 9 9 10 9 9 9 10 9 9 8 9 9 9 8 7 5 4 4 5 5 6 6 6 8 8 6 6 6 7 7 7 4 4 4 6 4 4 5
1 9 7 4 4 6 5 5 5 5 6 5 6 7 7 6 7 6 6 6 5 3 6 8 8 8 8 9 10 10 9 9 9 10 9 8 7 7 7 6 6 5 5 5 6 6 5 5 7 7 7 6 5 5 5 4 2 3 3 2 3 2 2
3 2 5 2 3 3 2 4 5 4 5 5 6 6 7 8 7 7 6 5 5 4 4 4 5 8 8 9 9 10 9 9 9 9 7 7 8 7 6 5 4 4 4 4 5 5 5 5 4 2 3 5 7 6 4 4 4 4 2 1 1 3 4
3 5 1 3 3 1 3 3 2 2 2 4 4 5 6 7 7 7 6 5 4 4 2 1 3 7 8 9 10 10 9 10 10 10 7 6 8 8 7 7 6 5 5 5 5 5 5 4 4 3 3 3 4 5 6 5 5 3 1 1 3 4 5
1 5 3 0 3 1 4 3 3 3 3 2 3 3 4 5 6 6 6 6 5 5 3 1 1 3 6 8 9 9 8 9 9 9 8 8 5 3 2 4 7 7 6 5 5 5 5 4 4 2 2 3 3 3 5 6 6 5 4 3 3 5 5
2 4 2 2 3 2 3 3 2 2 3 3 3 4 5 4 4 4 4 4 4 3 2 1 1 1 4 6 7 7 8 8 10 12 13 11 8 6 5 3 3 4 4 4 5 5 4 4 3 2 2 2 3 3 4 4 5 5 6 6 6 6 5
Wind_Direction
180 199 206 217 254 237 166 203 212 226 240 246 251 251 261 274 249 264 227 223 179 135 152 174 186 184 199 153 218 174 167 169 169 182 184 181 184 193 191 214 194 184 183 188 184 182 186 180 184 184 179 178 181 175 172 177 178 178 179 184 184 187 187
220 217 201 222 216 262 254 202 214 215 238 269 251 257 230 237 262 236 240 234 216 207 195 196 200 150 206 185 199 162 169 159 176 181 175 180 180 185 188 188 204 194 186 191 188 185 183 181 185 182 181 185 181 181 178 179 180 181 183 184 188 186 187
183 210 220 212 220 231 256 269 156 206 181 214 234 264 245 239 220 228 233 249 247 220 152 171 193 187 167 198 180 191 166 144 166 172 176 175 174 176 183 188 192 200 195 184 195 189 184 182 187 183 180 189 181 184 189 186 183 185 187 189 189 189 189
158 187 197 216 188 216 241 272 267 237 252 222 214 212 271 260 247 239 215 217 238 261 111 187 166 176 203 121 177 130 154 133 155 178 168 171 176 176 177 184 184 190 194 189 191 189 183 187 183 182 182 188 190 186 183 197 186 186 191 191 185 192 192
145 210 188 219 197 196 200 223 240 204 238 245 238 202 226 250 257 244 250 217 131 15 25 22 126 124 108 148 129 125 142 165 167 165 167 169 178 175 174 174 175 186 194 182 186 185 182 183 181 181 183 186 192 173 201 196 182 186 195 195 186 195 193
217 228 183 229 208 198 197 214 218 235 190 219 216 238 206 236 252 263 249 250 98 87 336 97 88 115 139 134 153 142 144 159 197 168 167 160 171 171 165 173 180 182 180 185 165 170 172 176 179 177 185 163 202 174 188 198 177 186 197 196 194 190 197
238 360 286 219 257 302 248 202 219 222 240 225 223 241 220 212 239 254 266 267 123 96 83 57 71 100 117 126 119 111 107 137 198 162 157 160 160 167 164 171 168 171 166 160 152 150 156 164 165 166 169 168 173 168 175 175 178 187 189 196 196 195 198
289 245 241 264 255 247 237 217 212 205 224 226 246 245 264 256 213 227 246 249 128 139 109 112 93 69 90 94 104 112 107 119 130 139 147 152 145 160 166 166 167 161 161 166 158 149 152 152 147 150 149 166 165 167 172 172 183 184 191 190 185 209 195
234 226 197 235 214 227 240 224 221 229 235 227 229 231 217 244 267 248 214 247 133 98 107 118 123 138 132 124 127 130 122 122 129 129 135 142 146 153 169 175 165 162 159 142 129 119 117 115 126 135 142 157 164 163 173 176 181 186 189 197 189 192 196
234 221 220 202 205 206 229 234 232 222 252 280 290 243 224 274 260 272 249 219 100 115 175 140 137 134 128 101 129 117 118 118 112 135 148 147 147 153 144 151 161 179 164 143 123 97 81 99 115 118 115 132 156 163 175 178 175 175 185 189 196 197 196
284 326 21 298 304 257 228 214 288 272 257 254 262 267 264 237 227 243 259 59 154 138 114 137 158 156 131 128 149 126 123 123 109 74 101 147 141 151 142 181 160 198 169 159 142 141 161 139 119 91 92 118 125 147 170 176 171 178 184 186 194 203 203
252 263 260 263 245 292 313 281 260 265 252 247 249 248 240 358 342 248 350 355 237 123 157 170 169 166 141 154 145 127 122 127 115 98 87 95 142 153 157 166 154 175 171 160 149 154 157 157 158 143 138 121 137 136 160 190 189 188 187 187 192 202 207
249 230 222 217 226 207 180 227 247 263 253 234 237 241 253 260 265 254 31 355 319 224 151 144 126 143 173 172 161 119 109 109 119 145 134 96 85 109 133 141 153 176 186 159 157 157 158 159 164 169 163 165 176 197 199 217 236 223 213 210 206 207 208
250 233 221 209 229 224 211 227 240 261 265 248 243 240 252 276 268 272 264 39 28 20 48 113 125 143 159 137 107 126 126 116 116 117 130 125 108 87 83 93 131 160 161 159 165 162 166 172 173 172 174 177 176 177 184 190 195 205 217 224 224 223 226
248 231 227 247 271 284 276 257 245 267 287 269 249 297 259 295 266 271 274 236 100 64 49 73 80 124 136 169 146 121 116 123 128 129 115 106 106 101 94 86 77 93 114 137 148 157 170 184 185 192 194 194 195 194 188 183 183 183 186 210 219 222 223
236 227 227 225 226 252 264 262 255 252 260 258 304 275 24 291 262 248 258 247 148 312 71 76 110 167 186 153 134 139 126 120 111 114 111 111 107 106 105 100 101 102 100 98 95 94 133 166 181 188 201 196 195 200 202 202 196 188 196 205 215 221 223
249 237 247 240 248 258 252 237 230 237 35 309 256 166 131 342 333 290 240 311 36 169 182 165 156 179 155 139 123 122 107 116 125 124 121 125 119 107 108 105 99 79 79 84 91 116 120 105 94 101 157 181 167 204 213 210 205 205 206 210 218 225 226
259 249 244 242 242 241 248 349 357 142 182 208 292 36 339 13 41 89 161 343 153 182 196 189 190 140 139 128 91 73 83 118 120 126 124 118 113 99 87 97 98 101 93 87 83 77 66 65 83 83 64 76 94 84 76 86 198 198 205 214 221 223 225
251 236 218 226 229 230 73 232 40 323 345 293 291 56 314 32 26 5 357 232 147 216 30 78 85 87 84 77 82 84 73 73 107 107 105 108 110 106 102 98 98 99 100 101 105 102 94 101 108 111 108 98 88 88 90 99 105 108 115 112 99 116 136
249 239 224 235 231 116 268 62 1 360 276 307 275 244 20 16 17 5 6 300 67 136 100 125 122 113 112 101 74 53 27 22 123 127 114 111 106 99 96 101 103 104 100 96 92 95 103 107 99 94 93 101 104 93 91 84 81 76 79 83 80 70 72
244 234 221 243 65 250 279 215 32 348 5 360 345 325 246 6 351 16 11 325 333 188 130 146 129 129 147 116 68 38 22 32 88 95 105 106 100 101 100 100 102 98 99 101 100 99 92 87 83 85 90 91 90 91 86 80 76 70 70 67 66 70 82
245 255 243 248 220 227 259 322 32 352 32 328 305 282 101 4 22 344 358 334 341 272 179 155 147 163 201 160 81 48 22 44 71 65 95 109 103 97 100 95 91 92 94 98 101 98 98 91 101 113 114 103 101 95 92 92 84 74 63 64 61 48 54
241 219 242 244 247 89 169 316 320 345 312 303 316 274 177 15 20 32 308 308 340 335 175 253 174 189 209 120 87 72 40 30 59 92 72 74 86 97 98 91 83 66 58 72 86 87 86 90 82 71 64 88 104 106 104 93 88 80 72 68 65 67 44
248 284 253 239 27 77 68 4 312 333 330 274 258 253 189 332 356 329 338 352 8 332 291 277 214 224 198 123 86 70 56 47 36 37 69 85 78 72 72 72 73 68 58 49 49 52 55 59 74 84 84 71 65 67 77 80 77 71 63 52 67 63 68
248 246 252 143 94 50 5 339 308 334 343 313 254 242 15 327 335 330 322 328 123 91 298 323 303 83 105 111 119 115 103 79 52 58 61 65 61 55 51 52 55 60 66 59 41 39 31 27 38 50 58 66 70 62 63 65 63 67 70 70 60 61 55
266 263 293 85 124 4 344 303 323 356 277 239 286 32 304 313 332 329 331 340 27 116 54 67 93 130 125 131 132 131 114 103 109 93 65 57 70 81 64 44 41 62 60 58 66 58 36 25 32 54 55 58 58 60 55 52 54 56 56 51 52 56 56
275 264 186 133 148 64 2 323 269 26 42 1 360 338 346 14 351 354 340 328 24 187 61 113 134 117 128 127 133 131 114 111 101 97 98 89 55 43 53 65 74 60 54 58 47 36 37 38 26 35 51 56 55 57 57 45 46 48 44 45 49 47 41
330 339 358 69 22 33 10 353 54 49 42 7 17 344 352 7 19 336 31 296 305 38 69 62 113 124 139 134 129 134 127 121 113 104 96 79 64 54 40 28 21 41 76 61 54 57 46 41 31 36 40 44 50 56 55 41 36 41 48 52 66 71 56
350 23 57 86 83 76 59 45 73 61 34 23 15 4 18 22 11 12 356 300 28 31 89 113 126 137 142 142 147 145 142 136 132 125 120 115 101 79 55 54 60 25 10 20 52 57 54 46 36 36 42 36 37 43 45 59 51 34 28 41 53 66 60
57 96 33 129 106 65 90 85 42 31 25 25 13 22 15 41 1 12 27 348 69 118 98 124 123 108 91 106 135 139 145 144 130 129 129 127 120 114 112 104 89 83 50 18 10 26 35 37 43 31 40 43 30 27 36 37 38 48 35 37 40 43 75
263 149 138 114 103 103 78 97 92 71 38 31 15 24 21 26 8 26 46 16 49 91 128 128 123 129 139 138 146 130 129 127 132 131 131 134 135 136 139 136 138 132 124 121 99 42 25 10 14 22 37 44 48 60 48 39 37 17 14 49 58 48 41
269 58 107 96 82 78 29 12 64 63 53 36 26 27 31 34 31 33 35 48 79 103 116 142 133 141 137 128 133 135 140 145 143 135 131 135 135 137 134 138 141 140 133 115 86 73 61 24 14 7 17 39 39 27 40 57 24 18 22 4 16 25 35
209 150 171 132 108 73 59 74 40 37 29 29 28 20 29 33 32 28 45 39 49 81 132 161 163 155 157 148 144 136 140 150 150 147 152 157 156 143 162 166 175 165 154 130 116 107 87 58 37 8 4 13 28 41 40 41 4 43 21 25 6 39 50
258 53 349 344 228 152 92 64 59 49 51 35 37 32 37 39 38 30 41 61 63 76 124 178 168 170 156 166 158 152 143 143 140 132 143 153 151 152 150 154 141 116 114 122 114 101 99 107 116 105 3 4 2 24 35 34 24 25 354 331 92 63 34
44 72 254 304 345 122 123 111 79 49 25 51 46 43 33 35 41 32 35 39 68 98 111 159 192 171 182 179 172 161 157 154 151 147 143 144 144 143 151 153 152 150 143 140 126 120 119 124 126 136 120 65 27 11 16 23 31 39 6 20 19 55 49
279 161 178 29 290 357 127 116 103 66 25 18 78 66 57 38 27 36 41 31 21 35 57 83 287 215 179 183 178 175 165 174 161 158 145 142 147 137 118 160 167 165 161 161 142 125 131 131 126 133 112 108 87 55 34 22 10 16 16 21 33 45 48
13 75 82 14 36 145 148 166 145 114 85 18 34 23 20 28 39 25 28 30 26 14 28 26 128 176 171 188 201 194 192 187 189 176 174 177 176 158 160 166 212 194 167 158 152 148 142 130 124 115 113 76 63 65 57 45 37 21 9 14 26 29 36